Regional Weather Roundup
Issued by NWS

Home | Current Version | Previous Version | Text Only | Print | Product List | Glossary Off
Versions: 1 2 3 4 5 6 7 8 9 10 11 12 13 14 15 16 17 18 19 20 21 22 23 24 25 26 27 28 29 30 31 32 33 34 35 36 37 38 39 40 41 42 43 44 45 46 47 48 49 50

000
ASUS43 KFSD 210310
RWRSD

WEATHER ROUNDUP FOR SOUTH DAKOTA
NATIONAL WEATHER SERVICE SIOUX FALLS SD
1000 PM CDT FRI APR 20 2018

NOTE: "FAIR" INDICATES FEW OR NO CLOUDS BELOW 12,000 FEET WITH NO
SIGNIFICANT WEATHER AND/OR OBSTRUCTIONS TO VISIBILITY.


SDZ001>005-009-010-012>017-210400-
NORTHWEST AND NORTH CENTRAL SOUTH DAKOTA

CITY           SKY/WX    TMP DP  RH WIND       PRES   REMARKS
BUFFALO          N/A     41  36  82 S21G31    30.12R
FAITH            N/A     41  41 100 S18       30.25R
MOBRIDGE       CLOUDY    47  36  65 S10       30.29R
$$

SDZ012>016-024>037-041>051-057-063-072>074-210400-
SOUTHWEST AND SOUTH CENTRAL SOUTH DAKOTA

CITY           SKY/WX    TMP DP  RH WIND       PRES   REMARKS
RAPID CTY ARPT CLOUDY    39  38  96 SE13      30.22S
PIERRE         CLOUDY    42  42 100 E6        30.32F
CUSTER         FOG       32  30  92 SE7       30.17R VSB 1/4 WCI  26
ELLSWORTH AFB  CLOUDY    39  39 100 S15       30.21
PHILIP         CLOUDY    42  40  92 SE10      30.27F
PINE RIDGE     CLOUDY    39  37  92 E10       30.23R
SPEARFISH      CLOUDY    39  36  87 E10       30.16R
WINNER         CLOUDY    41  36  82 E7        30.32F
$$

SDZ004>011-016>023-039-040-210400-
NORTHEAST SOUTH DAKOTA

CITY           SKY/WX    TMP DP  RH WIND       PRES   REMARKS
ABERDEEN       MOCLDY    44  38  79 S7        30.36R
WATERTOWN      CLOUDY    41  37  86 SE7       30.37S
BROOKINGS      CLOUDY    39  34  82 SE8       30.40R
SISSETON         N/A     40  37  89 S8        30.38R
$$

SDZ017-020-022-023-036>040-048>070-210400-
SOUTHEAST SOUTH DAKOTA

CITY           SKY/WX    TMP DP  RH WIND       PRES   REMARKS
SIOUX FALLS    CLOUDY    40  35  83 E5        30.39R
HURON          CLOUDY    44  37  76 SE9       30.37R
CHAMBERLAIN    CLOUDY    43  43  99 E5        30.36S
MITCHELL       CLOUDY    40  36  86 SE7       30.39R
YANKTON        LGT RAIN  45  39  79 SE5       30.39R
$$

ABBREVIATIONS USED IN REMARKS
   TC - TEMPERATURE IN CELSIUS
  WCI - WIND CHILL INDEX
   HX - HEAT INDEX
  VSB - VISIBILITY




USA.gov is the U.S. government's official web portal to all federal, state and local government web resources and services.